Wind_Speed
14 13 11 10 10 10 10 10 10 10 11 10 10 9 8 8 7 7 7 7 6 5 4 3 3 3 3 3 4 5 6 6 6 7 7 8 9 9 9 10 10 9 9 9 9 9 10 10 10 11 11 12 13 13 14 14 14 13 13 13 12 12 12 12 12 12 13 13 14 14 15 16 17 18 19 20 21 22 23 24 25 25 26 26 26 26
15 14 12 11 10 10 10 11 11 11 12 12 11 10 10 9 9 9 8 8 7 5 4 4 3 3 2 3 5 6 6 6 7 7 8 9 10 10 11 11 11 10 9 8 8 8 8 8 9 10 11 12 13 14 14 15 15 15 15 15 14 14 14 13 13 13 13 14 14 14 15 16 16 17 18 19 20 21 22 23 24 25 26 27 28 28
15 14 13 12 11 10 10 11 12 12 12 12 12 12 11 11 10 9 8 7 6 6 5 4 4 3 3 3 5 6 7 7 7 7 8 9 10 12 12 13 12 11 9 8 7 7 7 8 9 9 10 11 12 13 14 15 16 16 16 16 16 16 15 15 15 14 14 15 15 15 15 16 16 17 18 19 20 21 22 23 24 25 26 27 28 28
15 15 14 14 13 12 11 11 11 12 12 12 12 12 12 11 10 9 8 7 6 6 6 5 4 4 4 4 5 7 7 7 7 8 9 10 12 13 13 13 12 11 9 9 8 8 9 9 9 10 10 11 12 13 14 15 16 16 16 17 17 17 17 17 16 16 16 16 16 16 16 17 17 17 18 19 20 21 22 23 24 25 25 26 27 28
15 15 14 13 12 12 11 10 10 10 11 11 12 11 11 10 9 8 8 7 7 6 6 5 5 5 4 5 6 7 7 8 8 9 10 11 13 13 13 12 11 10 10 10 10 11 11 11 10 10 10 11 11 12 13 14 15 15 16 16 17 17 18 18 18 18 17 17 17 17 17 18 18 18 19 19 20 21 22 23 24 25 26 26 27 28
14 14 14 13 12 12 11 11 10 9 10 11 11 11 10 9 8 7 7 7 7 6 6 5 5 4 4 5 6 7 7 8 9 9 10 12 12 13 12 11 11 10 10 11 12 13 14 12 11 10 9 10 10 10 11 12 13 14 14 15 16 17 18 18 18 18 18 18 18 18 18 18 19 19 20 20 20 21 22 23 24 25 25 26 27 27
11 13 13 13 13 13 12 12 11 10 10 11 12 12 11 10 8 7 6 6 6 6 6 5 5 4 4 5 5 6 7 8 8 9 10 10 11 11 12 12 11 11 11 13 14 15 15 13 11 9 8 8 8 9 9 10 11 12 14 15 16 17 18 18 18 19 19 19 19 19 19 19 20 20 20 21 21 21 22 23 24 24 25 26 26 27
8 10 11 12 12 13 14 14 13 11 10 11 12 13 12 11 9 8 7 6 6 6 6 5 5 5 4 5 5 6 6 6 7 8 8 9 10 11 12 12 13 13 13 15 16 16 14 12 10 8 7 7 7 7 8 10 11 12 14 15 16 17 18 18 18 18 18 18 19 19 19 20 20 21 21 22 22 22 23 23 24 24 25 26 26 26
6 8 10 11 12 12 13 14 14 12 10 10 11 13 12 11 10 9 8 7 7 6 6 6 5 4 4 4 5 6 6 7 8 8 9 10 11 11 12 13 14 14 15 16 16 15 14 12 10 8 7 6 7 7 9 10 12 13 15 16 17 17 18 18 18 18 18 19 19 19 20 21 21 22 22 22 23 23 24 24 24 25 25 26 26 26
5 6 8 10 11 12 12 13 14 12 10 9 10 11 12 11 11 9 9 8 7 7 6 6 5 4 4 5 6 6 8 9 11 11 12 12 12 13 13 13 14 14 15 15 15 14 13 12 10 8 7 7 7 8 10 12 14 15 16 17 17 17 18 18 18 19 19 19 20 20 21 22 22 22 22 23 23 23 24 24 25 25 26 26 26 26
4 5 7 8 10 11 11 12 12 12 10 9 9 10 11 12 11 9 8 8 8 7 7 6 5 5 4 5 6 7 9 11 12 13 13 13 13 13 13 13 13 13 12 12 12 11 11 10 9 8 8 8 9 10 12 14 15 16 17 17 17 17 18 18 18 19 19 20 21 21 22 22 22 22 22 22 22 23 23 24 25 25 26 26 26 26
4 4 5 5 6 7 8 9 10 11 10 9 8 7 9 10 10 9 8 8 8 8 7 6 6 5 4 4 5 7 9 11 13 14 14 13 12 12 12 11 10 8 8 8 7 7 7 7 7 8 8 10 11 13 14 16 17 18 18 18 18 18 18 18 18 19 20 21 21 22 22 23 22 22 22 22 22 22 22 23 24 25 25 26 26 27
8 7 5 4 4 4 4 5 6 7 9 8 5 3 4 6 7 7 7 7 7 7 6 5 4 4 4 4 4 6 9 11 13 13 13 12 11 11 9 8 7 7 7 7 8 8 8 8 9 9 10 12 13 15 16 17 18 19 19 19 19 18 18 18 19 19 20 21 22 22 22 23 22 22 22 22 22 22 22 22 23 24 25 25 26 27
9 9 9 8 6 5 4 4 3 4 3 3 2 1 2 3 4 5 5 6 6 5 5 3 2 2 2 3 4 6 8 10 11 11 10 10 9 9 8 8 8 8 9 9 10 11 11 12 12 13 14 15 16 16 17 18 18 19 19 19 19 19 19 19 20 20 21 22 22 22 22 22 22 22 22 22 22 22 22 22 22 23 24 25 26 26
7 8 7 7 8 9 9 7 6 5 5 5 5 4 3 3 3 4 4 4 4 3 2 2 2 2 3 4 5 6 7 7 8 8 9 9 9 9 9 10 10 10 11 12 13 14 14 15 17 18 18 19 19 18 18 18 18 19 19 19 19 20 20 20 21 21 22 22 22 22 22 23 23 22 22 22 22 23 22 22 22 23 23 24 25 26
6 6 5 5 6 8 11 11 11 10 12 12 12 11 9 8 6 4 3 2 2 1 1 0 1 2 3 4 4 5 5 6 7 8 9 10 11 11 11 12 13 14 14 16 17 18 19 20 21 21 21 20 20 19 19 18 18 18 19 19 20 20 21 21 21 21 21 21 21 22 22 23 23 23 22 23 23 23 23 23 23 23 23 24 25 26
6 6 4 4 5 7 10 11 12 12 12 13 12 12 11 10 8 6 4 2 1 1 1 2 3 3 3 3 4 4 5 7 9 11 12 14 14 14 14 15 16 18 19 20 21 21 22 22 21 21 20 19 19 18 18 18 18 18 18 19 19 19 20 20 20 20 20 20 21 22 22 23 23 23 22 23 23 23 23 23 23 23 24 24 25 26
6 6 5 5 5 6 9 10 10 11 12 11 11 10 9 8 8 7 5 4 3 4 4 4 4 3 2 3 4 5 7 10 12 13 15 16 17 17 17 17 19 20 21 22 22 21 20 19 18 18 17 17 17 17 17 17 17 17 17 18 18 18 19 19 19 20 20 21 21 22 22 23 23 22 22 23 23 23 23 23 23 24 24 24 25 26
5 6 6 5 5 6 7 8 9 10 11 10 9 9 8 8 7 7 7 6 6 6 6 6 5 3 2 4 6 8 9 11 12 14 16 17 18 19 19 19 20 21 21 21 20 18 17 16 15 15 15 15 15 16 16 16 16 16 17 17 18 18 19 19 20 21 21 22 22 22 23 23 22 22 23 23 24 24 24 24 24 24 24 25 25 26
3 4 5 5 4 5 6 7 8 9 8 8 7 8 8 8 8 8 8 8 8 7 7 6 5 4 4 5 7 9 10 11 13 15 15 15 18 20 20 20 20 19 19 18 16 14 14 14 14 14 14 15 15 15 15 16 16 17 17 18 19 19 20 21 21 22 23 23 23 23 23 23 23 23 24 24 25 25 25 25 25 24 24 25 25 26
3 4 4 4 4 5 4 5 5 5 5 4 5 7 8 8 8 9 9 8 8 8 7 7 7 7 7 8 10 11 11 12 14 15 14 14 16 18 19 18 17 16 16 15 13 12 12 12 13 14 15 15 15 16 16 16 16 17 18 18 19 19 20 20 20 21 21 21 22 22 23 24 24 25 26 26 26 26 25 25 24 24 24 24 25 26
3 3 3 2 3 4 4 3 3 3 3 3 5 7 7 7 8 8 9 9 9 9 8 8 9 9 10 12 13 14 13 14 15 15 12 10 12 15 16 14 13 13 13 11 10 10 11 12 13 14 15 16 16 16 16 16 16 17 17 17 17 17 17 17 17 17 18 18 18 19 21 22 23 24 25 26 26 25 24 24 23 23 23 23 24 25
1 1 1 1 2 2 2 3 4 4 4 4 4 4 5 5 6 7 8 8 9 9 9 10 12 13 14 15 16 15 15 14 14 14 11 8 8 11 11 10 10 10 10 10 10 11 12 13 14 16 16 16 16 16 15 15 15 16 16 15 15 15 15 15 16 16 16 16 17 18 19 19 20 21 22 22 23 23 22 22 21 21 21 22 23 24
1 2 3 3 3 4 4 5 6 6 7 6 6 6 5 5 6 7 7 8 9 10 11 12 13 14 15 15 14 14 12 10 11 12 11 9 8 9 8 8 8 9 10 10 11 13 14 15 16 16 16 16 15 14 14 15 16 16 16 16 15 16 16 16 16 17 18 18 18 18 18 19 19 19 20 20 20 21 21 21 21 21 21 21 22 22
4 5 5 6 6 6 6 7 7 7 8 8 9 9 9 8 8 9 9 9 9 10 10 11 11 12 12 11 11 10 9 8 9 10 9 7 7 7 7 7 8 10 11 13 14 15 15 16 16 16 16 16 15 15 15 16 17 18 18 18 18 19 19 19 20 21 21 22 22 21 20 20 19 20 20 21 21 21 21 21 22 22 22 22 22 22
5 5 6 6 7 7 7 7 7 7 7 8 8 9 9 9 9 10 10 9 8 8 8 9 9 8 9 9 8 8 8 7 7 7 7 6 6 7 8 8 9 11 13 14 15 15 15 15 15 16 16 17 17 18 18 19 19 20 20 21 22 22 23 23 24 24 24 24 24 24 23 22 22 23 23 23 22 22 22 22 22 22 23 23 22 22
5 5 5 5 5 5 5 5 6 6 6 6 7 7 7 7 7 7 7 7 7 7 8 6 5 5 7 7 6 6 6 7 7 8 9 9 8 8 9 9 10 12 14 15 14 14 14 15 16 16 17 18 19 19 20 20 21 22 22 23 24 25 26 26 26 26 26 25 25 25 24 24 25 25 25 25 24 23 22 22 22 23 23 24 24 23
5 4 4 4 4 4 4 4 5 5 5 5 5 4 4 4 4 5 5 5 6 6 7 6 4 3 4 4 5 6 7 8 8 9 9 9 8 8 10 10 11 12 13 13 14 14 14 15 15 16 16 16 17 18 19 21 22 23 24 25 26 27 27 27 27 27 26 25 24 24 23 24 24 25 25 24 24 24 23 23 23 23 24 24 25 24
4 3 3 3 3 3 3 3 3 3 4 4 4 3 2 2 3 4 5 5 6 7 7 7 6 5 4 5 6 6 6 6 7 8 8 8 8 8 9 10 10 11 12 13 14 14 14 13 14 14 14 15 16 17 19 20 22 23 25 26 27 27 27 27 27 26 26 25 24 23 22 22 23 23 24 24 24 24 24 23 23 24 25 25 25 25
4 3 3 3 3 2 2 1 2 3 4 4 4 3 2 1 2 4 4 5 5 6 7 6 6 6 6 6 5 4 3 3 5 7 8 9 9 9 11 12 13 13 14 13 10 8 10 12 12 12 12 13 15 17 19 20 22 24 25 26 27 27 27 27 26 26 26 25 25 24 23 22 22 23 23 24 24 24 24 24 24 25 26 27 27 26
5 5 4 4 4 3 3 3 4 4 4 4 4 4 4 4 4 4 5 5 5 6 6 6 7 7 7 5 2 1 1 2 6 9 10 12 11 11 13 14 14 15 14 12 6 1 4 8 10 11 12 14 16 18 20 21 22 23 24 25 25 26 26 25 25 26 26 26 25 25 24 24 24 23 23 23 24 24 24 24 24 25 26 28 28 28
5 5 5 5 5 5 6 6 6 5 4 4 4 4 4 5 5 5 6 6 6 6 6 7 7 7 7 5 2 1 2 5 8 11 12 13 13 13 13 13 14 15 15 13 10 5 3 4 8 13 15 17 19 20 21 21 21 22 23 23 24 24 24 24 25 26 26 27 26 26 26 26 25 25 24 24 24 24 24 24 24 25 26 27 28 28
5 5 5 5 5 6 6 6 6 5 5 4 4 4 4 4 4 5 6 6 6 6 6 7 8 8 8 7 6 5 6 8 11 12 13 13 13 13 13 13 14 15 15 15 15 12 9 9 12 16 18 20 20 21 21 22 22 22 22 23 23 24 24 24 25 26 26 27 27 28 27 27 27 26 26 25 25 25 25 25 24 25 25 27 28 28
5 5 5 5 5 6 6 6 5 5 5 5 4 5 5 5 6 6 6 6 6 6 6 6 7 8 8 8 9 9 11 12 12 13 13 14 13 13 14 14 14 14 15 14 15 14 14 14 15 16 18 21 22 22 22 22 22 22 22 22 23 24 24 25 25 26 27 27 28 28 28 28 28 28 27 27 26 26 26 26 25 25 25 26 27 28
6 6 6 5 5 5 6 6 6 5 5 5 6 6 7 7 8 8 8 8 7 7 6 5 5 6 7 8 9 10 12 14 15 15 14 14 14 14 14 13 13 13 13 13 13 12 12 14 16 16 17 19 21 21 21 21 21 21 21 21 22 23 24 25 25 26 27 27 27 27 27 28 28 28 28 28 28 27 27 27 26 26 25 25 26 26
6 6 6 6 6 6 6 6 6 6 6 6 7 7 8 9 10 10 11 10 10 9 8 7 6 6 7 8 9 11 14 16 17 16 15 15 15 15 14 14 14 14 13 13 13 12 12 14 16 16 16 15 16 17 19 19 19 19 20 21 22 23 24 25 25 25 26 27 27 27 27 28 28 29 29 29 29 28 28 27 27 26 26 25 25 25
6 6 6 6 6 6 6 6 6 7 7 8 8 9 10 10 11 12 11 11 10 9 8 7 7 7 7 8 10 12 14 15 15 15 15 14 14 14 14 14 15 14 14 13 13 12 12 13 14 14 14 13 12 13 15 18 19 19 21 22 22 23 24 25 25 25 25 26 27 27 28 28 29 29 30 30 29 29 28 28 27 26 26 26 25 25
5 6 6 6 6 6 6 6 7 7 8 9 10 10 11 12 12 11 10 9 8 8 8 8 8 8 8 9 10 11 12 13 14 14 13 13 13 14 15 15 15 15 14 13 13 13 12 11 9 8 10 11 13 14 16 18 19 19 21 22 23 23 24 24 24 24 25 26 27 28 28 29 29 30 30 30 29 29 29 29 28 27 26 26 26 26
5 5 6 6 6 6 6 7 7 8 9 10 11 11 11 11 10 9 8 8 8 7 8 8 9 9 9 10 10 11 12 12 12 12 13 13 13 14 15 15 16 16 16 15 15 15 14 12 10 8 9 10 12 15 16 17 18 19 21 22 23 23 23 23 23 23 25 26 27 28 29 29 29 29 29 29 29 29 29 29 28 27 27 27 27 27
5 5 5 5 6 6 6 7 8 9 9 10 10 10 10 9 8 8 8 8 8 8 8 9 9 9 10 10 10 10 11 11 11 11 12 12 12 13 14 15 16 16 16 16 16 16 15 14 14 14 13 12 13 15 16 17 18 19 20 20 20 21 22 23 23 24 25 25 26 27 28 28 28 28 28 28 28 28 28 28 28 28 28 28 28 28
5 5 5 5 5 6 6 7 8 9 9 9 9 8 8 8 8 8 9 9 9 9 9 10 10 10 10 10 10 10 10 11 11 11 11 11 12 12 13 15 15 16 16 16 16 16 16 16 16 16 16 16 16 17 17 18 18 18 18 18 19 21 23 23 23 23 23 24 24 25 26 27 27 28 28 29 29 29 29 29 30 30 30 29 28 27
5 5 5 6 6 7 8 9 9 9 8 8 7 7 7 7 8 8 9 9 10 10 10 10 11 11 12 12 12 11 11 10 10 10 11 11 11 12 13 14 15 15 15 15 16 16 16 16 17 17 17 17 16 16 16 18 19 18 17 18 20 22 22 22 20 20 21 22 24 25 26 27 28 29 30 30 30 30 30 30 30 30 30 29 28 28
5 5 6 6 7 8 8 8 8 8 7 7 7 7 7 7 8 8 9 9 9 10 10 10 11 11 12 13 13 13 12 11 11 11 11 11 11 12 12 13 13 14 15 14 15 16 16 16 16 17 17 17 16 16 15 17 18 17 17 18 19 20 18 19 20 21 22 23 25 26 27 28 28 29 30 30 30 29 30 30 29 29 29 29 29 30
5 5 6 6 7 7 7 7 7 7 7 7 7 7 7 7 8 8 8 9 9 10 10 10 11 11 12 12 12 13 12 12 11 11 11 11 11 11 11 12 12 13 14 14 14 14 15 15 15 15 15 15 15 15 16 17 18 18 19 19 20 20 19 20 23 25 25 25 26 26 27 28 29 29 29 29 29 29 28 28 28 28 28 28 28 29
5 5 6 7 7 7 7 7 7 7 7 7 8 8 8 8 8 8 9 9 9 10 10 10 10 10 9 10 11 12 12 12 12 12 12 12 11 11 12 12 12 12 13 14 14 14 14 13 14 15 15 15 16 16 17 18 18 19 20 20 21 21 23 24 25 25 25 26 26 26 27 27 28 29 29 28 28 27 27 27 27 27 27 27 27 28
5 6 6 7 7 7 7 7 7 7 8 8 8 8 8 8 8 9 9 9 10 10 10 10 9 9 8 9 10 11 12 13 13 13 12 12 12 12 12 12 13 13 14 15 15 16 16 15 16 16 16 17 17 17 18 18 18 19 20 21 21 22 23 23 23 23 24 25 25 26 27 27 27 27 27 27 27 27 26 26 26 26 27 27 27 27
5 6 7 7 7 7 8 8 8 8 8 8 8 8 9 9 9 9 9 9 10 10 10 10 9 9 9 9 10 10 11 12 12 12 12 12 13 13 13 14 14 14 14 15 16 16 16 16 17 17 17 17 17 17 18 18 19 20 21 21 21 21 22 22 22 22 23 23 24 25 26 26 26 25 26 26 26 26 26 26 26 26 27 27 27 27
6 6 7 7 7 7 7 8 8 8 8 9 8 8 9 9 9 9 9 10 10 10 10 10 10 9 9 10 10 10 10 10 11 12 13 13 14 14 14 14 14 15 15 15 15 15 16 16 17 17 17 17 17 17 18 18 19 19 20 21 21 21 21 22 22 22 22 23 23 24 25 25 24 23 24 25 25 26 26 26 26 26 27 27 27 27
6 6 7 7 7 7 7 7 8 8 8 8 8 8 9 9 9 9 10 10 11 11 10 10 9 9 9 10 10 11 11 11 11 12 13 14 14 14 14 14 15 15 15 15 16 16 16 17 17 16 16 16 17 18 19 19 19 19 20 20 20 20 21 21 21 22 22 22 23 24 24 24 23 23 23 23 23 24 25 25 26 27 27 27 27 27
6 7 7 7 7 7 7 8 8 8 9 9 9 9 10 10 10 10 11 11 11 11 11 10 10 10 10 10 11 11 11 11 11 12 13 13 13 14 14 14 15 15 15 15 15 15 15 15 15 15 14 14 15 17 19 19 19 19 19 19 19 19 19 19 19 20 20 21 21 22 22 22 22 23 22 22 21 22 23 24 25 26 27 27 27 27
7 7 7 7 8 8 8 8 9 9 9 10 10 10 11 11 12 11 11 11 12 12 12 12 11 11 11 11 11 11 11 11 11 11 12 12 13 13 14 14 14 14 13 12 11 10 10 10 11 12 14 13 13 14 16 17 17 17 16 17 17 17 17 18 19 20 21 21 21 21 22 22 23 23 23 21 19 18 18 19 22 24 26 27 28 28
Wind_Direction
256 255 248 238 224 211 203 203 203 203 205 208 212 217 221 217 208 198 189 187 192 200 212 226 243 264 292 310 309 298 286 280 280 284 291 297 303 309 314 317 316 312 305 298 293 290 290 292 295 299 302 305 306 308 309 310 310 310 310 309 307 307 306 306 304 303 302 301 300 298 296 293 291 288 286 284 282 280 276 272 268 264 259 256 255 254
254 255 253 249 242 233 225 224 222 219 217 214 212 211 207 197 187 180 178 181 186 192 201 214 226 241 276 316 322 312 298 285 280 283 289 295 300 305 309 313 313 312 308 303 300 298 299 302 303 304 304 304 304 304 304 304 304 304 304 304 303 303 303 303 303 302 301 300 299 298 297 295 293 291 289 287 285 284 281 278 274 269 264 259 256 253
249 254 254 254 252 249 243 238 236 233 227 218 210 203 195 185 179 178 180 184 190 196 204 213 226 241 261 293 309 308 299 288 284 286 292 296 300 303 306 308 309 307 304 301 301 305 309 311 311 308 304 301 299 298 297 297 297 297 298 298 299 300 301 301 301 300 300 299 298 298 297 296 294 292 290 289 287 285 284 282 279 276 272 266 262 257
244 249 253 255 258 260 259 253 245 238 230 219 208 199 193 189 188 191 197 203 208 211 217 225 237 253 264 279 292 297 295 290 289 292 295 298 300 303 305 306 305 303 299 297 299 305 311 312 311 306 301 297 294 292 291 291 292 293 295 296 298 299 300 301 301 300 300 299 298 298 297 296 295 294 292 290 288 287 285 283 282 280 278 274 270 266
240 244 249 253 257 262 267 266 257 243 230 219 208 199 193 192 197 206 216 222 224 225 229 236 247 259 270 274 282 288 292 292 294 295 297 298 300 301 303 304 302 300 297 296 299 305 310 311 309 304 298 294 292 291 291 292 293 294 296 298 300 301 302 303 303 303 302 302 301 300 299 299 298 296 294 293 291 289 287 285 284 282 281 279 277 274
239 242 246 251 256 262 268 272 268 254 236 222 212 203 196 195 200 211 220 226 230 232 236 241 248 256 266 270 275 280 286 290 293 295 297 298 299 301 303 302 300 297 295 295 299 304 308 309 307 302 298 297 296 296 297 298 299 301 302 303 304 305 306 306 306 306 306 305 305 304 303 302 301 300 298 296 294 292 290 287 286 284 282 281 279 277
244 244 247 252 257 262 268 273 274 265 245 225 212 204 198 196 197 203 212 220 228 233 237 240 243 248 258 264 270 274 279 282 286 291 294 298 301 302 303 302 300 296 293 293 296 300 303 303 301 299 298 299 301 303 305 306 308 309 309 309 309 308 308 308 307 307 307 307 307 308 307 307 306 304 302 300 298 296 293 291 288 286 284 282 281 279
257 254 255 258 262 265 268 272 274 270 253 228 208 197 191 190 190 195 204 216 227 235 240 239 238 240 248 257 263 266 268 272 276 283 289 296 300 301 301 301 299 295 291 291 293 295 297 296 295 292 294 297 301 305 308 310 311 312 312 312 311 309 308 307 307 307 307 308 309 310 311 310 310 308 307 305 302 300 297 295 292 290 287 285 282 280
275 273 268 266 267 270 272 273 274 271 259 232 208 192 183 182 186 194 203 213 228 241 245 241 233 228 230 239 248 254 258 264 270 277 284 291 296 298 299 297 294 291 288 288 290 292 293 291 287 283 283 287 294 301 306 309 310 311 311 310 309 308 307 306 306 306 307 309 310 312 313 313 313 311 310 308 305 303 301 298 296 294 291 288 285 282
284 281 277 271 269 270 272 273 274 271 263 238 214 199 190 185 186 193 204 216 230 241 243 233 216 202 203 218 235 248 259 266 272 278 286 293 298 301 300 296 291 287 286 287 291 294 294 291 286 280 278 281 289 297 304 307 309 309 309 308 308 307 306 306 306 306 308 309 311 313 315 315 315 313 311 309 307 305 303 301 299 297 295 292 288 285
300 284 278 275 273 271 271 272 272 270 261 242 221 208 202 197 194 196 207 216 222 224 220 212 198 187 189 212 232 249 263 274 281 288 295 301 305 305 302 296 290 286 286 289 294 299 302 302 298 294 292 293 298 303 306 308 308 308 307 307 306 306 306 306 306 307 308 310 312 314 315 316 316 314 313 310 308 305 304 302 300 299 297 295 292 288
338 311 291 282 280 280 278 276 271 264 254 238 218 199 196 202 203 203 208 212 210 206 202 200 196 194 197 215 239 259 275 288 298 304 308 310 311 308 303 295 288 284 286 289 294 302 310 314 315 315 312 310 309 309 309 308 307 306 305 305 305 305 305 306 306 307 308 310 312 314 315 316 316 315 314 311 309 306 304 302 301 299 298 297 295 292
5 355 343 323 308 302 298 291 275 259 247 236 221 197 187 198 201 200 200 201 201 200 200 199 201 206 213 231 262 287 301 308 311 312 311 308 306 305 303 297 292 289 289 288 289 292 299 304 307 308 309 308 307 307 306 305 304 304 304 303 304 304 305 306 307 308 309 310 311 313 315 316 316 316 314 312 310 308 305 303 301 300 299 298 296 294
18 13 12 9 8 3 354 332 298 270 258 249 234 202 184 183 179 178 179 184 190 196 200 204 217 241 263 282 306 320 325 321 315 308 301 295 295 299 301 299 297 294 293 293 292 292 294 298 300 300 299 299 298 297 297 298 300 301 302 303 304 305 306 306 307 308 308 309 310 312 314 315 316 316 314 313 311 308 306 304 302 300 299 298 297 295
25 21 20 23 27 28 23 14 8 14 29 41 55 75 101 118 135 152 168 173 176 182 195 223 262 297 328 339 346 347 340 328 318 308 296 285 283 289 298 300 297 294 294 295 295 295 295 298 299 299 296 294 292 291 291 292 294 297 299 302 303 304 305 305 305 306 307 308 309 311 313 315 315 315 314 313 311 309 307 305 303 301 300 298 297 296
36 30 27 30 35 34 29 25 23 27 35 43 50 55 57 58 68 86 114 156 170 175 199 317 352 355 350 351 358 357 345 336 328 319 306 291 283 284 294 301 301 299 297 299 300 299 298 299 298 297 295 293 291 290 289 290 292 294 297 299 301 301 302 302 302 303 305 307 309 310 312 314 315 315 314 314 312 311 309 307 305 303 301 300 298 296
39 37 36 39 34 27 26 26 26 27 31 37 41 42 41 39 38 40 39 54 62 18 21 44 56 50 18 354 341 332 333 333 328 320 311 299 289 287 293 301 305 306 302 302 302 302 301 300 299 298 297 296 296 295 294 295 295 297 298 298 298 298 298 299 300 302 304 307 309 310 312 313 314 315 315 315 314 313 312 310 308 306 304 302 300 298
36 35 36 39 31 24 26 27 25 26 30 31 32 33 32 31 27 26 25 26 28 30 32 35 42 49 31 334 317 313 317 324 324 320 313 305 297 293 295 301 305 306 305 303 302 302 302 301 301 301 302 303 304 304 303 303 302 301 300 298 298 298 298 299 301 302 305 307 308 309 311 312 314 315 316 316 316 316 315 313 311 309 306 304 302 300
42 41 43 41 31 27 32 35 33 29 27 26 26 25 24 25 25 25 23 23 25 27 30 29 23 8 332 290 291 300 308 316 319 318 317 311 304 300 301 304 306 305 304 302 302 303 304 304 305 306 307 309 309 309 309 308 306 305 304 303 302 302 302 302 302 302 303 304 305 307 309 311 313 315 316 317 318 317 316 314 312 310 308 306 303 301
53 52 53 50 43 41 43 42 37 32 28 27 27 27 21 21 21 20 19 19 20 23 24 17 5 344 317 297 292 293 300 309 316 319 317 311 305 303 303 304 304 303 301 300 303 306 308 308 309 309 310 311 311 311 311 310 309 308 307 305 304 303 303 302 302 301 301 302 303 305 307 310 312 314 316 317 317 317 316 314 312 310 308 305 303 301
62 56 48 46 51 57 56 43 30 20 21 20 27 29 24 18 13 10 7 6 8 12 12 2 348 332 315 303 294 290 294 306 316 319 313 305 300 299 300 301 300 296 294 297 303 308 309 308 308 308 309 310 311 312 312 312 311 310 309 307 305 304 304 303 303 303 304 304 306 308 311 312 313 314 314 315 316 316 315 314 312 310 307 305 303 301
59 48 39 31 43 52 47 21 358 342 342 354 18 24 17 10 4 358 353 351 351 350 346 335 320 307 299 294 288 285 288 299 307 309 302 295 291 292 296 298 295 291 289 295 303 307 306 305 305 306 307 308 310 312 313 314 314 314 312 310 310 311 312 313 313 313 313 314 316 317 318 317 316 316 316 316 316 315 315 314 313 311 308 305 303 300
57 25 3 354 357 357 349 333 323 315 311 320 336 348 350 347 343 338 335 332 330 326 317 306 296 291 290 290 288 287 289 294 297 295 286 275 276 285 293 297 294 291 293 300 306 308 305 305 304 304 305 306 307 309 311 313 315 316 318 321 323 325 325 324 324 325 326 325 323 321 319 318 318 318 319 319 319 318 318 317 317 315 312 309 305 301
306 298 294 297 302 307 310 313 312 310 308 305 301 297 295 297 301 303 304 305 305 304 303 300 298 297 296 297 297 297 297 298 292 282 269 261 267 280 292 300 303 304 303 305 307 308 307 305 303 302 302 302 303 305 309 313 317 320 323 325 326 327 329 330 332 332 331 329 326 322 320 319 320 321 323 324 324 323 323 323 323 322 319 315 310 305
310 300 295 292 293 296 300 303 304 304 304 301 297 293 290 289 288 288 289 293 298 303 307 308 305 301 300 303 304 302 303 302 295 283 272 272 280 289 299 309 315 315 309 306 305 305 304 302 301 300 301 302 302 303 306 311 315 317 318 320 321 323 325 327 328 328 328 327 325 324 323 324 326 329 330 330 330 329 328 328 327 326 324 321 316 310
322 310 300 296 294 294 295 297 299 300 300 299 297 296 295 295 294 295 297 301 307 311 308 299 290 286 289 291 290 291 297 300 300 301 305 311 311 308 307 312 316 313 306 302 302 301 300 299 300 301 303 303 302 302 305 309 312 314 315 317 318 319 320 321 322 323 324 325 324 324 324 325 328 330 331 331 331 331 331 330 330 329 327 324 320 315
337 326 316 310 306 305 306 310 311 312 309 305 302 300 300 301 303 306 310 312 312 309 301 288 280 281 285 283 282 287 300 309 312 313 317 321 320 314 310 311 310 305 300 298 298 298 297 298 299 302 305 305 304 303 305 309 312 315 316 316 316 317 317 317 319 320 322 323 324 324 323 323 323 324 325 326 327 328 329 330 330 329 328 325 321 318
352 351 348 346 339 335 333 334 334 334 332 326 317 309 301 304 310 313 312 309 307 307 306 300 292 289 291 292 290 297 310 320 324 321 315 317 316 311 310 310 308 304 303 303 301 299 297 297 298 302 305 305 306 306 308 310 312 314 315 315 316 316 316 317 319 321 323 324 324 324 322 320 319 319 321 321 322 324 325 326 328 328 327 325 322 320
354 1 8 10 5 356 345 346 358 5 359 352 346 337 314 310 314 315 309 304 305 308 310 309 306 304 303 304 301 301 308 326 334 332 324 330 328 319 317 319 319 320 321 318 312 305 300 298 299 302 304 305 307 309 312 313 314 315 316 316 316 317 317 319 321 323 324 325 325 324 322 321 320 319 320 320 320 321 321 322 324 326 326 325 323 321
350 356 2 5 0 352 347 25 59 48 32 28 28 32 33 4 343 332 321 317 319 323 325 324 325 328 330 326 320 309 298 350 1 355 352 359 356 343 333 331 330 331 333 333 328 314 304 302 301 302 305 307 310 313 315 317 318 319 318 318 317 317 318 320 322 324 324 324 324 323 322 321 320 319 319 319 320 320 319 319 320 322 323 324 323 321
353 357 1 3 4 13 35 61 65 61 56 53 51 51 54 45 30 15 3 358 357 358 358 355 353 353 356 3 12 347 305 20 2 352 351 359 356 344 337 333 328 326 330 336 345 346 307 305 303 303 307 310 312 314 316 317 318 318 318 318 317 317 318 320 321 321 321 320 320 320 319 319 318 318 318 319 319 319 319 318 318 319 320 322 322 320
356 3 10 12 18 28 42 50 51 51 54 54 48 44 45 41 32 23 18 15 13 9 5 0 355 351 351 355 353 288 306 333 336 336 340 348 345 335 331 328 324 320 321 324 324 318 306 303 303 304 307 310 311 312 312 312 313 313 314 315 315 315 316 317 318 317 317 317 316 316 316 315 315 315 316 317 318 318 318 317 317 317 317 319 319 318
2 13 21 24 26 30 36 40 41 42 44 41 28 18 12 10 4 1 0 1 0 358 356 353 348 342 335 329 319 304 298 306 316 324 330 337 337 332 327 324 320 317 316 315 313 308 300 296 299 303 305 306 307 308 308 309 309 310 311 312 312 312 313 314 315 315 314 314 314 314 314 314 314 314 315 315 316 317 317 317 316 315 315 315 315 315
11 22 28 30 31 33 37 40 42 40 37 28 12 355 343 337 334 332 334 336 338 342 343 344 344 340 334 326 316 306 298 297 302 311 319 327 330 328 324 320 317 315 314 311 308 305 298 296 298 301 302 302 303 303 304 306 307 308 308 309 310 311 313 314 315 315 314 314 313 313 313 314 314 314 314 314 314 314 315 315 314 313 312 312 312 312
18 26 32 34 35 37 39 42 41 37 29 17 1 345 333 326 321 318 317 318 319 320 320 320 321 322 321 317 310 302 297 295 295 300 309 317 320 319 316 312 310 311 312 307 305 302 297 296 297 299 300 300 300 300 301 304 305 307 307 307 308 309 311 313 314 314 314 313 313 313 313 313 314 314 313 313 312 312 311 311 311 311 310 309 309 310
19 27 35 37 36 35 33 32 27 21 12 1 349 338 328 322 317 314 313 312 312 311 308 304 300 297 294 294 293 293 293 294 295 298 303 307 311 310 307 302 303 305 305 303 301 299 296 295 296 296 297 296 297 299 301 304 306 307 307 307 307 308 308 310 311 312 312 312 312 312 312 312 312 312 311 310 309 309 308 308 308 309 308 308 308 308
21 30 36 34 32 28 23 17 9 1 354 345 337 330 325 321 319 317 317 318 318 318 317 315 311 306 300 295 291 290 292 295 298 301 302 303 303 301 297 295 296 298 296 295 295 295 294 293 293 293 292 290 291 295 301 306 307 307 306 307 307 307 307 308 309 309 309 310 310 310 310 310 310 310 309 309 309 309 309 309 309 309 309 309 308 307
27 31 32 28 22 17 11 3 355 348 341 335 329 325 323 322 323 324 327 330 333 334 333 330 325 318 310 303 297 293 293 294 297 298 299 298 296 293 290 289 290 290 288 286 286 287 287 287 289 291 290 288 289 293 298 304 306 305 305 305 305 305 305 306 307 307 307 308 308 308 308 308 308 309 310 311 312 313 313 312 312 311 311 310 308 307
26 26 23 18 12 7 1 355 346 338 331 326 324 324 325 328 331 334 337 338 338 336 332 327 321 315 309 303 298 295 295 295 296 297 297 295 293 290 288 286 286 286 285 283 281 280 280 279 280 283 288 291 293 296 299 302 303 304 305 306 305 304 304 305 305 305 306 306 306 306 306 307 308 310 311 312 313 314 314 313 313 312 311 311 310 309
17 16 12 5 359 354 348 342 335 328 325 325 327 330 334 338 340 341 340 338 336 332 328 324 320 316 312 308 304 301 298 297 296 296 296 295 293 291 289 287 285 286 285 284 282 280 278 277 278 281 284 288 293 297 300 301 302 304 306 306 304 303 304 305 304 304 304 304 304 305 306 308 309 310 311 311 312 312 312 312 312 311 311 311 312 313
8 6 1 353 343 336 332 328 326 327 330 333 336 339 341 342 341 340 339 338 337 336 335 333 329 325 321 316 312 309 306 304 301 299 298 297 295 293 291 288 287 286 286 285 283 281 279 278 280 282 285 288 291 294 296 298 300 302 303 300 299 300 303 304 304 304 305 305 305 305 306 308 309 309 309 308 308 308 308 308 309 309 309 309 310 311
3 0 353 344 337 331 327 327 331 336 340 341 339 338 339 339 338 337 337 337 337 337 337 336 333 328 324 320 318 317 316 314 312 308 305 302 300 297 294 291 290 289 287 285 283 281 278 277 277 279 282 286 289 290 291 294 297 298 298 298 300 303 304 304 304 305 305 304 305 305 305 306 306 306 306 305 305 305 306 306 306 307 307 307 307 307
356 350 342 338 334 333 333 337 342 345 345 340 337 335 335 335 335 335 334 334 333 333 334 333 330 326 321 319 319 320 321 320 317 314 310 306 303 301 299 297 295 294 293 289 285 282 281 279 277 277 281 284 287 287 288 294 298 299 300 301 303 305 304 303 304 305 304 303 303 303 303 303 303 303 304 304 304 304 305 305 305 305 305 304 304 304
347 340 336 335 334 336 339 343 344 343 341 337 335 333 332 333 333 332 331 329 327 328 329 329 327 324 320 316 317 320 320 320 318 316 314 311 310 309 307 304 301 299 297 296 292 289 289 286 284 285 288 291 292 292 293 296 298 299 300 301 301 299 296 297 301 303 303 302 302 302 302 302 303 303 303 303 304 304 304 304 304 304 304 304 303 303
341 336 334 334 334 335 337 336 337 337 336 335 333 331 330 331 330 329 327 325 324 324 326 326 325 321 315 314 316 318 318 318 318 318 319 319 318 316 314 310 306 303 302 302 302 301 300 298 297 298 299 300 298 296 294 295 296 297 297 297 297 295 293 295 298 300 300 301 301 301 302 303 303 303 303 303 303 304 304 303 303 302 302 303 303 302
336 333 331 331 331 332 332 332 333 334 335 333 331 329 327 327 327 326 324 322 321 321 322 323 320 314 308 310 313 315 315 315 317 319 321 322 322 320 317 314 310 308 306 305 304 304 303 301 302 304 304 302 298 294 292 292 293 294 294 295 295 295 295 295 296 297 298 299 300 300 301 302 303 302 301 301 302 303 303 302 301 301 301 301 301 301
335 331 330 330 330 331 332 334 335 336 335 332 329 326 325 325 325 323 322 320 319 318 318 318 314 308 302 304 306 307 309 311 313 317 319 321 321 320 319 317 315 312 309 307 305 303 299 298 298 300 300 298 294 291 290 290 290 289 290 293 294 293 293 294 295 296 297 297 297 299 301 301 301 300 299 300 301 301 302 301 300 299 299 299 299 299
335 332 329 329 330 331 333 336 336 335 333 330 326 323 322 323 322 320 318 317 316 316 314 312 307 302 299 299 300 302 304 306 309 312 316 317 318 318 319 318 318 316 314 311 307 304 300 297 295 293 292 289 286 284 286 288 288 287 288 290 291 290 289 290 292 295 296 295 296 298 299 298 297 297 299 300 301 301 301 300 300 299 298 298 298 298
329 328 327 326 326 327 328 329 330 329 327 325 322 319 318 319 318 315 313 312 311 309 306 302 299 297 296 296 297 300 301 301 303 307 311 314 316 318 319 320 320 319 317 314 311 308 304 300 296 291 287 283 280 279 281 283 285 287 287 287 286 285 285 287 290 293 295 296 297 298 298 297 297 298 300 300 299 299 299 299 299 299 299 298 298 298
321 322 321 321 320 319 319 320 319 318 317 317 315 313 313 313 313 310 308 307 305 303 299 296 293 292 291 292 294 295 296 297 299 303 307 312 315 317 318 320 321 321 319 316 314 312 309 305 302 298 293 286 280 277 277 279 283 285 286 284 284 284 286 289 293 298 300 302 304 306 307 308 309 308 308 304 301 299 299 299 299 298 298 299 299 299
318 317 317 316 315 315 313 313 312 311 311 311 310 309 309 310 310 309 307 305 302 299 296 294 292 289 287 288 290 291 293 294 296 299 303 309 312 314 316 318 319 319 317 315 313 310 307 305 304 301 298 294 288 282 280 281 285 289 289 290 292 295 297 299 302 305 309 312 315 319 321 322 321 320 318 315 310 305 302 301 300 299 299 299 299 300
Height
746 746 747 748 748 749 749 749 749 750 750 751 752 752 753 753 754 754 754 755 756 756 757 757 757 757 757 757 757 757 757 757 757 757 757 757 757 757 757 757 757 757 757 757 756 756 756 756 756 756 756 755 755 755 755 755 755 755 755 755 755 755 755 755 755 754 754 754 754 754 754 753 753 753 753 753 753 752 752 752 752 753 753 753 752 752
744 745 746 746 747 747 748 748 748 749 749 750 750 751 751 752 753 753 754 754 755 755 755 756 756 756 756 756 757 757 757 757 756 756 756 756 756 757 756 756 756 756 756 756 756 756 756 755 755 755 755 754 754 754 754 754 754 754 754 754 755 755 754 754 754 754 753 753 753 753 752 752 752 751 751 751 751 751 751 751 751 751 751 751 751 751
744 744 744 745 746 746 747 747 748 748 748 749 749 750 750 751 751 752 752 753 753 754 754 754 755 755 755 756 756 756 756 756 756 756 756 756 756 756 756 756 756 755 755 755 755 755 755 754 754 754 754 754 753 753 753 753 754 754 754 754 754 754 754 754 753 753 752 752 752 751 751 751 750 750 750 750 749 749 749 749 749 749 749 749 749 749
743 743 743 744 745 745 746 746 746 747 747 748 748 748 749 749 749 750 751 751 752 752 753 753 754 754 754 755 755 755 755 755 755 755 755 755 755 755 755 755 755 755 755 754 754 754 754 754 753 753 753 752 752 752 752 753 753 753 754 754 754 754 753 753 752 752 751 751 750 750 750 749 749 749 749 748 748 748 748 748 748 748 748 748 748 748
741 742 742 743 744 744 745 745 746 746 746 747 747 747 747 748 748 749 749 750 750 751 751 752 752 753 753 754 754 754 754 754 754 754 754 754 754 754 754 754 754 754 754 754 753 753 753 752 752 752 751 751 751 752 752 752 753 753 753 753 753 753 752 751 751 750 750 749 749 749 748 748 748 747 747 747 747 746 746 746 746 746 746 746 746 746
740 741 742 742 743 743 744 744 745 745 745 745 746 746 746 746 747 748 748 749 749 750 750 751 751 752 752 753 753 753 753 753 753 753 754 754 754 754 754 754 754 754 753 753 752 752 752 751 751 751 750 751 751 751 751 752 752 752 752 752 752 751 751 750 749 749 749 748 748 747 747 746 746 746 745 745 745 745 744 744 744 744 744 744 744 744
739 740 740 741 741 742 743 743 744 744 744 744 744 745 745 745 746 746 747 748 749 749 749 749 750 750 751 751 752 752 752 752 753 753 753 753 753 753 753 753 753 753 752 752 752 751 751 750 750 750 750 750 750 750 751 751 751 751 751 751 750 750 749 749 748 748 747 747 746 746 745 745 744 744 744 744 743 743 743 743 743 742 742 742 742 742
739 739 739 740 740 741 741 742 742 743 743 743 743 743 743 744 744 745 746 747 747 748 748 749 749 749 749 750 750 751 751 751 752 752 752 752 752 752 752 752 752 752 751 751 751 750 750 749 749 749 749 749 750 750 750 750 750 750 750 749 749 749 748 747 747 746 746 745 745 744 744 744 743 743 742 742 742 741 741 741 741 740 740 740 740 740
738 739 739 739 739 740 740 741 741 742 742 742 741 741 741 742 742 743 744 745 746 747 748 748 747 748 748 749 749 749 750 750 750 750 751 751 751 751 751 751 751 751 750 750 750 749 749 749 749 749 749 749 749 749 749 749 749 749 749 748 748 747 747 746 746 745 745 744 744 743 743 742 742 741 741 740 740 740 739 739 739 739 739 739 738 738
738 738 739 739 739 739 739 740 740 741 741 741 740 740 740 740 741 742 743 743 744 746 747 747 746 746 746 746 747 748 749 749 749 749 749 749 750 750 750 750 750 750 749 749 749 749 749 748 748 748 748 748 748 748 748 748 748 747 747 747 746 746 745 745 744 744 744 743 743 742 742 741 741 740 739 739 739 738 738 738 737 737 737 737 736 736
737 737 738 738 738 738 739 739 739 740 741 740 739 739 739 739 740 740 741 742 743 745 746 746 745 744 744 744 745 746 747 748 748 748 749 749 749 749 749 749 749 749 749 749 748 748 748 748 748 748 748 748 748 747 747 746 746 746 745 745 745 744 744 744 744 743 743 742 742 741 741 740 739 739 738 738 737 737 736 736 735 735 735 735 734 734
736 737 737 737 737 737 737 738 739 739 740 739 739 738 738 738 739 739 740 741 742 744 744 744 744 743 743 743 744 745 746 747 747 747 748 748 748 748 748 748 748 748 748 747 747 747 747 747 747 747 747 747 746 746 746 745 745 744 744 744 744 743 743 743 742 742 742 741 741 740 739 739 738 738 737 736 736 735 734 734 734 734 733 733 733 732
736 737 737 737 737 737 737 737 738 739 739 739 738 737 737 737 738 739 739 740 742 743 743 743 742 742 742 742 743 744 744 745 746 747 747 747 748 748 747 747 747 746 746 746 746 746 746 746 746 746 746 745 745 745 745 744 744 744 743 743 742 742 742 741 741 741 740 740 739 739 739 738 737 737 736 735 734 734 733 733 732 732 731 731 731 730
737 737 736 736 736 737 737 738 739 739 739 738 737 737 737 737 737 738 739 740 741 742 742 742 741 741 741 741 742 743 744 744 745 746 746 747 747 746 746 745 745 745 745 745 745 744 745 744 744 744 744 744 744 744 744 743 743 742 742 742 741 741 740 740 740 739 739 739 738 738 737 737 736 735 734 734 733 732 731 731 730 730 729 729 729 729
738 738 737 737 738 738 739 739 739 739 738 737 736 736 737 737 737 738 739 740 741 741 741 741 740 740 740 740 741 742 743 744 744 745 745 745 745 745 745 744 744 744 744 744 744 743 743 743 743 743 743 743 743 742 742 742 742 741 741 741 740 740 739 739 739 738 738 738 737 736 736 735 734 734 733 732 731 731 730 729 729 728 728 727 727 726
739 739 739 739 739 739 740 740 739 739 738 737 737 737 737 738 738 739 739 740 740 740 740 739 739 739 739 740 741 742 743 743 744 744 744 744 744 744 744 744 743 743 743 743 743 742 742 742 742 742 742 742 741 741 741 740 740 740 740 739 739 739 738 738 738 737 737 736 736 735 734 734 733 732 731 731 730 729 728 728 727 727 726 725 725 724
739 739 739 739 740 740 740 740 740 739 738 738 738 738 739 739 739 740 740 740 740 739 739 738 738 738 738 739 741 742 742 742 743 743 743 743 743 743 744 743 742 742 742 742 742 741 741 741 741 741 741 740 740 740 739 739 739 739 739 738 738 738 737 737 736 736 735 735 734 734 733 732 732 731 730 729 729 728 727 726 725 725 724 724 723 723
739 739 739 739 740 740 740 740 740 739 739 739 739 739 739 740 740 740 740 740 739 739 738 737 737 738 739 740 741 742 742 742 742 742 743 742 742 742 743 742 742 741 741 740 740 741 740 740 740 740 739 739 739 739 739 738 738 738 738 737 737 736 736 735 735 735 734 734 733 732 732 731 730 729 729 728 727 726 725 725 724 724 723 722 721 721
739 739 740 740 740 740 740 740 740 740 739 739 739 739 740 740 740 740 740 740 739 738 738 737 737 738 739 741 741 742 742 742 742 742 742 741 741 741 742 741 741 740 740 739 739 740 739 739 739 739 739 739 739 738 738 738 737 737 736 736 735 735 734 734 734 733 733 732 732 731 730 729 729 728 727 727 726 725 724 724 723 722 721 720 720 719
740 740 740 740 740 740 740 740 741 741 740 740 740 740 740 740 740 740 740 739 739 738 737 737 738 739 740 741 741 741 741 741 741 741 741 741 740 740 741 741 740 739 739 739 739 739 739 739 739 739 739 738 738 737 737 736 736 735 735 734 734 734 733 733 732 732 731 731 730 729 729 728 727 727 726 725 724 724 723 722 721 720 719 719 718 717
740 740 740 740 740 740 740 740 740 740 740 740 740 740 740 740 740 740 740 739 738 738 738 739 739 740 741 741 740 740 740 741 741 741 741 740 740 740 740 740 739 739 738 738 738 738 738 738 738 738 738 737 737 736 736 735 735 734 734 733 733 732 732 731 731 730 730 729 728 728 727 726 726 725 724 724 723 722 722 721 720 719 718 717 716 715
740 740 740 740 739 739 739 740 740 740 740 740 740 740 740 740 740 740 740 739 739 738 739 739 740 741 741 741 740 740 740 740 740 741 741 740 739 739 739 739 739 738 737 737 738 738 738 738 737 737 737 737 736 736 735 735 734 734 733 732 731 731 731 730 729 729 728 727 726 726 725 724 724 724 723 722 721 721 720 719 718 717 716 715 714 714
739 739 739 739 739 739 739 739 739 740 740 740 740 740 740 740 740 740 740 739 739 739 739 740 740 741 741 740 739 739 740 740 740 740 740 739 738 738 739 739 738 737 737 737 737 737 737 737 737 736 736 736 735 735 734 734 733 732 732 731 730 730 729 729 728 728 727 726 725 724 724 723 723 722 721 721 720 719 719 718 717 716 715 714 713 712
738 738 739 739 739 739 739 739 739 739 740 740 740 740 740 740 740 740 740 739 739 739 739 739 740 740 740 739 739 739 739 739 740 740 739 738 738 737 738 738 737 736 736 736 737 737 736 736 736 736 736 735 735 734 734 733 732 731 730 730 729 729 728 728 727 726 725 725 724 724 723 722 722 721 720 720 719 718 717 717 716 715 714 713 712 711
738 738 738 738 738 738 738 739 739 739 739 739 739 740 740 739 739 739 739 739 739 739 739 739 739 739 739 739 739 739 739 739 739 739 739 737 737 737 737 737 737 736 736 736 736 737 736 735 735 735 735 734 734 733 733 732 731 730 729 729 728 727 727 726 725 725 724 724 723 722 722 721 721 720 720 719 718 717 716 715 714 714 713 712 711 710
738 738 738 738 738 738 738 738 738 739 739 739 739 739 739 738 738 738 738 738 738 739 739 739 739 739 739 739 739 739 739 739 739 739 738 737 736 736 736 737 737 736 735 735 736 736 735 735 734 734 734 734 733 733 732 731 730 729 729 728 727 726 725 725 724 724 723 722 722 721 721 720 720 720 719 718 717 716 715 714 714 713 712 711 710 709
737 737 737 737 737 738 737 737 737 737 738 738 738 738 738 738 737 737 738 738 739 739 739 740 739 739 739 739 738 738 738 738 738 738 737 737 736 736 736 737 737 736 735 735 735 735 734 734 733 733 733 733 732 732 731 730 729 729 728 727 726 726 725 724 723 723 722 721 721 720 720 720 720 719 719 718 717 716 715 714 713 712 711 710 709 707
737 737 737 737 737 737 737 737 737 737 737 737 737 738 738 737 737 738 738 739 739 739 739 739 739 739 739 738 738 738 738 738 738 738 737 737 736 736 736 736 736 736 735 734 734 734 734 733 733 733 732 732 732 731 730 729 729 728 727 727 726 725 724 724 723 722 721 721 720 720 720 719 719 719 718 717 716 715 714 713 712 711 710 709 707 706
736 736 736 736 736 736 736 736 736 736 737 737 737 738 738 738 738 738 739 739 739 739 739 739 739 739 739 738 738 738 738 738 738 738 737 737 736 736 736 736 736 736 735 734 733 733 733 733 732 732 731 731 731 730 729 729 728 728 727 726 725 724 724 723 722 722 721 720 720 719 719 719 718 717 717 716 715 714 713 712 711 710 709 708 706 705
736 736 736 736 736 736 736 736 736 736 737 737 738 738 738 738 739 739 739 739 739 739 739 739 739 739 739 738 738 738 738 738 738 737 736 737 737 736 736 736 736 736 736 735 734 733 732 731 731 731 731 730 730 729 729 729 728 727 726 726 725 724 723 723 722 721 720 720 719 719 718 717 717 716 715 715 714 713 712 711 710 709 708 707 705 704
736 736 736 736 736 736 736 736 736 736 737 737 737 737 738 738 738 739 739 739 739 739 739 739 739 739 739 739 739 738 737 737 737 737 737 737 737 737 737 737 736 736 736 736 736 734 732 730 730 730 730 730 729 729 729 729 728 728 727 726 725 724 723 723 722 721 720 719 718 718 717 716 715 715 714 713 712 712 711 710 709 709 708 706 705 704
737 737 737 736 736 736 736 736 737 737 737 737 737 737 737 738 738 738 738 739 739 739 739 739 739 739 739 739 739 739 738 737 737 737 737 738 737 737 737 737 737 737 737 737 737 736 734 731 729 729 730 729 729 729 729 729 728 728 727 726 725 724 724 723 722 720 719 718 717 716 715 715 714 713 713 712 711 710 709 709 709 708 707 706 705 703
737 737 737 737 737 737 737 737 737 737 737 737 737 737 738 738 738 738 739 739 739 739 739 739 739 739 739 739 739 738 738 737 737 738 738 738 738 737 737 737 737 737 736 736 736 736 735 733 730 729 729 729 729 729 728 728 728 727 727 726 725 724 723 723 722 720 719 717 716 715 714 713 713 712 711 710 709 709 708 708 708 707 707 706 704 703
737 737 737 737 737 737 737 737 737 737 737 737 738 738 738 738 738 738 739 739 739 739 739 739 739 739 739 739 738 738 737 737 737 738 738 738 738 738 737 737 737 737 736 736 736 735 734 733 732 730 729 728 728 728 728 727 727 727 726 726 725 724 723 722 721 720 719 717 716 714 714 712 711 711 710 709 708 708 707 706 706 706 705 705 704 702
737 737 737 738 738 738 737 738 738 738 738 738 738 738 738 738 738 738 738 739 739 739 739 739 739 739 739 739 739 738 737 737 737 737 738 738 738 738 737 737 737 737 737 736 736 735 734 733 732 731 730 728 727 726 727 727 726 726 725 725 724 723 722 721 720 719 718 717 716 714 713 712 711 710 709 708 707 707 706 705 705 704 704 704 703 702
738 738 738 738 738 738 738 738 738 738 738 738 738 738 738 738 738 738 738 738 738 738 738 739 739 739 739 739 739 738 737 736 736 737 737 738 738 737 737 736 736 737 737 736 736 735 734 733 732 731 730 729 727 725 725 725 725 725 724 724 723 723 722 721 720 719 718 717 715 714 713 712 711 709 709 708 707 706 705 704 704 703 702 702 701 700
738 738 738 738 738 738 738 738 738 738 738 738 738 738 738 738 738 738 738 738 737 737 738 738 738 738 738 738 738 738 737 737 736 736 737 737 737 737 737 736 736 736 736 736 735 735 734 733 732 731 730 729 727 725 724 724 724 724 724 723 722 722 721 720 720 719 718 716 715 713 712 711 710 709 708 707 706 705 704 703 702 701 701 700 699 699
739 739 739 739 739 739 739 739 739 739 739 739 738 738 738 738 738 738 737 737 737 737 737 737 737 737 737 737 737 737 737 737 736 736 736 736 736 736 736 735 735 735 735 735 735 734 734 733 731 729 729 728 727 726 725 724 724 723 722 722 722 721 720 719 719 718 717 716 714 713 712 711 709 708 707 706 705 704 702 701 701 700 699 699 698 697
739 739 739 739 739 739 739 739 739 739 739 739 739 738 738 738 737 737 737 737 737 736 736 736 736 736 736 736 736 736 736 736 735 735 735 735 735 735 735 735 734 734 734 734 734 734 733 732 731 729 728 726 725 724 724 724 723 722 722 721 720 719 719 719 718 717 716 715 714 712 711 710 709 708 706 705 704 703 701 700 699 699 699 698 696 695
739 740 740 739 739 739 739 739 739 739 739 739 738 738 738 737 737 737 736 736 736 736 736 736 735 735 735 735 735 735 735 735 734 734 734 734 734 734 734 734 734 733 733 733 733 733 732 731 730 729 728 726 725 724 723 723 723 722 722 720 719 718 718 718 717 716 715 714 713 712 710 709 708 707 706 704 704 702 701 700 699 698 698 697 696 694
740 740 740 740 739 739 739 739 739 739 739 738 738 738 738 737 737 737 736 736 736 736 735 735 735 734 734 734 734 734 734 734 733 733 733 733 734 734 733 733 733 732 732 732 731 731 731 730 729 728 727 726 725 724 723 722 722 722 721 720 718 717 716 716 716 715 714 713 712 711 710 708 707 706 705 704 703 702 701 700 699 698 697 696 696 695
740 740 740 740 739 739 739 739 739 739 739 738 738 738 738 737 737 737 736 736 736 735 735 735 734 734 734 733 733 733 733 733 733 733 732 732 732 732 732 732 732 731 731 730 730 729 729 729 728 727 726 725 724 723 722 721 721 721 721 719 718 716 715 715 715 714 714 712 711 710 709 708 706 705 704 703 702 701 700 699 698 697 696 695 695 694
740 740 740 740 739 739 739 739 739 739 738 738 738 738 738 737 737 737 736 736 736 735 735 735 734 734 733 733 732 732 732 732 732 732 732 731 731 731 731 731 730 730 730 729 729 728 727 727 726 725 724 724 723 722 721 720 720 720 719 719 718 717 715 713 713 714 713 712 711 710 709 707 706 704 703 702 701 700 699 698 697 696 696 695 694 693
740 740 740 740 739 739 739 739 739 739 738 738 738 738 738 737 737 737 736 736 736 735 735 734 734 734 733 732 732 731 731 731 731 731 731 730 730 730 730 729 729 729 729 728 727 726 726 725 724 724 723 723 722 721 720 719 719 719 719 718 718 717 715 714 713 712 712 711 710 709 708 707 705 704 702 701 699 699 698 697 696 695 694 694 693 692
740 740 740 739 739 739 739 739 739 738 738 738 738 738 737 737 737 737 736 736 736 735 735 734 734 734 733 732 732 731 731 731 730 730 730 730 729 729 729 729 728 728 727 727 726 726 725 724 723 722 722 722 721 720 719 719 719 718 717 717 717 716 715 714 713 712 711 709 708 708 707 706 704 703 701 699 699 698 697 696 695 694 693 693 692 691
740 740 740 740 739 739 739 739 738 738 738 738 738 737 737 737 737 736 736 736 735 735 735 734 734 734 733 732 732 731 730 730 729 729 729 729 729 728 728 727 727 727 726 725 725 724 724 723 722 722 721 720 720 719 719 719 718 717 716 716 716 715 714 713 712 711 710 709 708 706 705 705 704 702 700 699 698 697 696 695 694 693 692 691 691 690
740 740 740 740 739 739 739 739 738 738 738 738 738 737 737 737 736 736 736 736 735 735 734 734 734 734 733 732 732 731 730 730 729 729 729 728 728 728 727 726 726 725 725 724 724 723 723 722 722 721 721 720 719 718 717 718 717 717 716 715 714 714 713 711 711 710 709 708 707 705 704 704 703 701 699 698 697 696 694 694 693 692 692 691 690 689
740 740 740 739 739 739 739 739 738 738 738 738 737 737 737 737 736 736 736 735 735 735 734 734 734 733 733 732 732 731 730 730 729 728 728 727 727 727 726 726 725 724 724 724 723 722 722 721 721 720 720 719 718 717 716 716 716 716 715 714 714 713 711 710 709 709 708 707 706 705 704 703 702 700 699 697 696 694 693 692 691 691 690 690 689 688
740 740 739 739 739 739 739 739 738 738 738 738 737 737 737 736 736 736 735 735 735 735 734 734 733 733 732 732 731 731 730 729 729 728 727 727 726 726 725 724 724 724 723 722 721 721 720 719 719 719 719 718 717 716 714 714 714 714 714 713 712 711 710 709 708 707 707 706 705 704 703 702 701 700 699 697 695 694 693 691 690 689 689 688 688 687
739 739 739 739 739 739 738 738 738 738 738 737 737 737 736 736 736 735 735 735 734 734 734 733 733 732 732 731 730 730 729 729 728 727 727 726 726 725 725 724 723 723 722 721 720 719 718 717 717 716 717 716 716 715 714 713 713 713 712 712 711 710 709 708 707 706 706 705 704 703 702 701 700 700 699 697 695 693 692 691 689 689 688 687 686 686
739 739 739 739 738 738 738 738 738 737 737 737 737 736 736 735 735 735 734 734 734 733 733 732 732 731 731 730 730 729 729 728 727 727 726 726 725 725 724 724 723 722 721 720 719 718 718 716 715 714 714 714 715 714 713 713 712 712 711 710 710 709 709 707 706 706 705 704 704 703 702 701 700 699 699 697 695 693 691 690 689 688 687 686 686 685